Voltar ao catálogo

THORAD DELTA 1 DEB

LostUNKNOWN
NORAD 42604·DEBRIS·🇺🇸 United States

Lançado Nov 15, 1974 de Vandenberg Space Force Base

Loading…

Próximas Passagens (próximas 24 horas)

TLE

ObsoletoSource: Space-Track

Época: Oct 20, 2021, 14:41 UTC

1 42604U 74089FV  21293.61181613  .00002683  00000-0  37650-1 0  9999
2 42604 102.9809  70.4015 0576586 263.2411  90.2700 11.56887847731385

Acompanhe THORAD DELTA 1 DEB em tempo real com AllMySat

Download on the App Store